This demonstration page uses our WeatherBlox Daily Observations layout. Learn more.

Left ArrowRight Arrow

34.02893, -84.19858

Hourly Observations for April 19, 2022

Temp ( °F °C ) Dew Point ( °F °C ) Humidity (%) Winds ( mph kmh ) Pressure ( in mb ) Visibility ( mi km ) Precip ( " mm )
12:53 am 00:53 Clear 47 8.3 36 2.2 66 66 NW 15 24 30.11 1020 10 16 0.00 0.00
1:53 am 01:53 Clear 46 7.8 33 0.6 61 61 NNW 15 24 30.12 1020 10 16 0.00 0.00
2:53 am 02:53 Clear 45 7.2 31 -0.6 58 58 NW 13 20 30.11 1020 10 16 0.00 0.00
3:53 am 03:53 Clear 44 6.7 31 -0.6 60 60 NNW 9 15 30.11 1020 10 16 0.00 0.00
4:53 am 04:53 Clear 44 6.7 32 0 63 63 NNW 9 15 30.13 1020 10 16 0.00 0.00
5:53 am 05:53 Clear 43 6.1 33 0.6 68 68 WNW 8 13 30.14 1021 10 16 0.00 0.00
6:53 am 06:53 Clear 42 5.6 33 0.6 71 71 NW 8 13 30.16 1021 10 16 0.00 0.00
7:53 am 07:53 Sunny 43 6.1 32 0 65 65 NW 10 17 30.19 1022 10 16 0.00 0.00
8:53 am 08:53 Sunny 46 7.8 25 -3.9 44 44 NNW 16 26 30.21 1023 10 16 0.00 0.00
9:53 am 09:53 Sunny 49 9.4 25 -3.9 39 39 NNW 13 20 30.22 1023 10 16 0.00 0.00
10:53 am 10:53 Sunny 51 10.6 25 -3.9 36 36 WNW 12 19 30.24 1024 10 16 0.00 0.00
11:53 am 11:53 Sunny 53 11.7 25 -3.9 34 34 NNW 12 19 30.23 1024 10 16 0.00 0.00
12:53 pm 12:53 Sunny 55 12.8 26 -3.3 33 33 WNW 10 17 30.23 1024 10 16 0.00 0.00
1:53 pm 13:53 Sunny 57 13.9 26 -3.3 30 30 NW 14 22 30.21 1023 10 16 0.00 0.00
2:53 pm 14:53 Sunny 60 15.6 27 -2.8 28 28 NW 12 19 30.21 1023 10 16 0.00 0.00
3:53 pm 15:53 Sunny 60 15.6 27 -2.8 28 28 NW 12 19 30.20 1023 10 16 0.00 0.00
4:53 pm 16:53 Sunny 61 16.1 27 -2.8 27 27 NW 14 22 30.19 1022 10 16 0.00 0.00
5:53 pm 17:53 Sunny 61 16.1 26 -3.3 26 26 WNW 9 15 30.18 1022 10 16 0.00 0.00
6:53 pm 18:53 Sunny 61 16.1 27 -2.8 27 27 NW 12 19 30.19 1022 10 16 0.00 0.00
7:53 pm 19:53 Sunny 57 13.9 26 -3.3 30 30 NNW 8 13 30.19 1022 10 16 0.00 0.00
8:53 pm 20:53 Clear 52 11.1 29 -1.7 41 41 Calm 30.20 1023 10 16 0.00 0.00
9:53 pm 21:53 Clear 48 8.9 32 0 54 54 Calm 30.22 1023 10 16 0.00 0.00
10:53 pm 22:53 Clear 45 7.2 33 0.6 63 63 Calm 30.23 1024 10 16 0.00 0.00
11:53 pm 23:53 Clear 43 6.1 36 2.2 76 76 Calm 30.24 1024 10 16 0.00 0.00

Powered by AerisWeather